Weather History for KCBF - October, 2012

Change the Weather History Date:

Tuesday, October 30, 2012

  Actual Average (KOMA) Record (KOMA)
Temperature  
Mean Temperature 43 °F 48 °F  
Max Temperature 51 °F 58 °F 83 °F (1950)
Min Temperature 35 °F 37 °F 11 °F (1925)
Degree Days  
Heating Degree Days 22 18  
Month to date heating degree days 364  
Since 1 July heating degree days 467  
Cooling Degree Days 0 0  
Month to date cooling degree days 12  
Year to date cooling degree days 1109  
Moisture  
Dew Point 27 °F    
Average Humidity 56    
Maximum Humidity 81    
Minimum Humidity 35    
Precipitation  
Precipitation 0.00 in 0.06 in 2.57 in (1979)
Month to date precipitation 2.09  
Year to date precipitation 27.88  
Snow  
Snow 0.00 in 0.00 in - ()
Month to date snowfall 0.3  
Since 1 July snowfall 0.3  
Snow Depth -    
Sea Level Pressure  
Sea Level Pressure 30.07 in    
Wind  
Wind Speed 9 mph (East)    
Max Wind Speed 13 mph    
Max Gust Speed 18 mph    
Visibility 10 miles    
Events      
T = Trace of Precipitation, MM = Missing Value Source: NWS Daily Summary

Daily Weather History Graph

Daily Weather History Graph

Search for Another Location

Airport or City:

Trip Planner

Search our weather history database for the weather conditions in past years. The results will help you decide how hot, cold, wet, or windy it might be!

Date:

Astronomy

Oct. 30, 2012 Rise Set
Actual Time 7:52 AM CDT 6:20 PM CDT
Civil Twilight 7:23 AM CDT 6:48 PM CDT
Nautical Twilight 6:51 AM CDT 7:21 PM CDT
Astronomical Twilight 6:19 AM CDT 7:53 PM CDT
Moon 6:49 PM CDT (10/30) 8:40 AM CDT (10/30)
Length of Visible Light 11h 24m
Length of Day
10h 27m
Full, 99% of the Moon is Illuminated
Oct 30
Full
Nov 6
Last Quarter
Nov 13
New
Nov 20
First Quarter
Nov 28
Full

Hourly Weather History & Observations

Time (CDT) Temp. Windchill Dew Point Humidity Pressure Visibility Wind Dir Wind Speed Gust Speed Precip Events Conditions
12:15 AM 39.2 °F 33.0 °F 30.2 °F 70% 30.11 in 10.0 mi SE 9.2 mph - N/A   Unknown
12:35 AM 39.2 °F 33.0 °F 30.2 °F 70% 30.11 in 10.0 mi SE 9.2 mph - N/A   Unknown
12:55 AM 37.4 °F 30.8 °F 30.2 °F 75% 30.11 in 10.0 mi ESE 9.2 mph - N/A   Unknown
1:15 AM 37.4 °F 31.4 °F 30.2 °F 75% 30.11 in 10.0 mi SE 8.1 mph - N/A   Unknown
1:35 AM 37.4 °F 31.4 °F 30.2 °F 75% 30.11 in 10.0 mi SE 8.1 mph - N/A   Unknown
1:55 AM 37.4 °F 30.8 °F 30.2 °F 75% 30.11 in 10.0 mi ESE 9.2 mph - N/A   Unknown
2:35 AM 37.4 °F 30.3 °F 30.2 °F 75% 30.09 in 10.0 mi SE 10.4 mph - N/A   Unknown
2:55 AM 37.4 °F 30.8 °F 30.2 °F 75% 30.09 in 10.0 mi SE 9.2 mph - N/A   Unknown
3:15 AM 35.6 °F 28.0 °F 28.4 °F 75% 30.09 in 10.0 mi ESE 10.4 mph - N/A   Unknown
3:55 AM 35.6 °F 29.2 °F 28.4 °F 75% 30.08 in 10.0 mi SE 8.1 mph - N/A   Unknown
4:15 AM 35.6 °F 29.2 °F 30.2 °F 81% 30.08 in 10.0 mi ESE 8.1 mph - N/A   Unknown
4:35 AM 35.6 °F 29.2 °F 28.4 °F 75% 30.08 in 10.0 mi ESE 8.1 mph - N/A   Unknown
4:55 AM 35.6 °F 29.9 °F 28.4 °F 75% 30.09 in 10.0 mi ESE 6.9 mph - N/A   Unknown
5:15 AM 35.6 °F 29.2 °F 28.4 °F 75% 30.07 in 10.0 mi ESE 8.1 mph - N/A   Unknown
5:35 AM 35.6 °F 28.0 °F 30.2 °F 81% 30.07 in 10.0 mi ESE 10.4 mph - N/A   Unknown
5:55 AM 35.6 °F 28.6 °F 30.2 °F 81% 30.08 in 10.0 mi East 9.2 mph - N/A   Unknown
6:15 AM 35.6 °F 28.6 °F 28.4 °F 75% 30.08 in 10.0 mi ESE 9.2 mph - N/A   Unknown
6:35 AM 35.6 °F 28.0 °F 30.2 °F 81% 30.07 in 10.0 mi ESE 10.4 mph - N/A   Unknown
6:55 AM 35.6 °F 27.1 °F 30.2 °F 81% 30.07 in 10.0 mi ESE 12.7 mph - N/A   Unknown
7:15 AM 35.6 °F 28.6 °F 30.2 °F 81% 30.07 in 10.0 mi ESE 9.2 mph - N/A   Unknown
7:35 AM 35.6 °F 29.2 °F 30.2 °F 81% 30.07 in 10.0 mi ESE 8.1 mph 15.0 mph N/A   Unknown
7:55 AM 37.4 °F 31.4 °F 30.2 °F 75% 30.07 in 10.0 mi ESE 8.1 mph - N/A   Unknown
8:35 AM 37.4 °F 30.3 °F 30.2 °F 75% 30.08 in 10.0 mi East 10.4 mph - N/A   Unknown
8:55 AM 37.4 °F 29.3 °F 30.2 °F 75% 30.08 in 10.0 mi East 12.7 mph - N/A   Unknown
9:15 AM 39.2 °F 31.6 °F 30.2 °F 70% 30.08 in 10.0 mi ESE 12.7 mph - N/A   Unknown
9:35 AM 39.2 °F 33.0 °F 30.2 °F 70% 30.09 in 10.0 mi ESE 9.2 mph - N/A   Unknown
9:55 AM 39.2 °F 32.0 °F 30.2 °F 70% 30.09 in 10.0 mi ESE 11.5 mph - N/A   Unknown
10:15 AM 41.0 °F 34.3 °F 30.2 °F 65% 30.09 in 10.0 mi ESE 11.5 mph - N/A   Unknown
10:35 AM 42.8 °F 36.6 °F 28.4 °F 57% 30.09 in 9.0 mi ESE 11.5 mph 18.4 mph N/A   Unknown
10:55 AM 42.8 °F 36.6 °F 28.4 °F 57% 30.09 in 10.0 mi SE 11.5 mph - N/A   Unknown
11:15 AM 44.6 °F 38.8 °F 28.4 °F 53% 30.09 in 10.0 mi SE 11.5 mph - N/A   Unknown
11:35 AM 44.6 °F 39.7 °F 28.4 °F 53% 30.09 in 10.0 mi ESE 9.2 mph - N/A   Unknown
11:55 AM 46.4 °F 41.5 °F 26.6 °F 46% 30.09 in 10.0 mi ESE 10.4 mph - N/A   Unknown
12:15 PM 46.4 °F 41.5 °F 26.6 °F 46% 30.09 in 10.0 mi SE 10.4 mph - N/A   Unknown
12:35 PM 46.4 °F 40.7 °F 26.6 °F 46% 30.08 in 10.0 mi SE 12.7 mph - N/A   Unknown
12:55 PM 46.4 °F 41.1 °F 26.6 °F 46% 30.08 in 10.0 mi SE 11.5 mph - N/A   Unknown
1:15 PM 48.2 °F - 24.8 °F 40% 30.07 in 10.0 mi ESE 11.5 mph - N/A   Unknown
1:35 PM 48.2 °F - 26.6 °F 43% 30.07 in 10.0 mi East 11.5 mph - N/A   Unknown
1:55 PM 48.2 °F - 24.8 °F 40% 30.06 in 10.0 mi ESE 10.4 mph - N/A   Unknown
2:15 PM 48.2 °F - 24.8 °F 40% 30.05 in 10.0 mi East 11.5 mph - N/A   Unknown
2:35 PM 50.0 °F - 24.8 °F 37% 30.05 in 10.0 mi ESE 9.2 mph - N/A   Unknown
2:55 PM 51.8 °F - 26.6 °F 38% 30.04 in 10.0 mi Variable 6.9 mph - N/A   Unknown
3:15 PM 50.0 °F - 24.8 °F 37% 30.05 in 10.0 mi Variable 5.8 mph - N/A   Unknown
3:35 PM 51.8 °F - 24.8 °F 35% 30.04 in 10.0 mi Variable 5.8 mph - N/A   Unknown
3:55 PM 51.8 °F - 24.8 °F 35% 30.04 in 10.0 mi Variable 4.6 mph - N/A   Unknown
4:15 PM 51.8 °F - 26.6 °F 38% 30.04 in 10.0 mi East 6.9 mph - N/A   Unknown
4:35 PM 51.8 °F - 24.8 °F 35% 30.03 in 10.0 mi ENE 4.6 mph - N/A   Unknown
4:55 PM 51.8 °F - 24.8 °F 35% 30.03 in 10.0 mi East 6.9 mph - N/A   Unknown
5:15 PM 51.8 °F - 24.8 °F 35% 30.03 in 10.0 mi East 5.8 mph - N/A   Unknown
5:35 PM 50.0 °F - 26.6 °F 40% 30.03 in 10.0 mi ENE 4.6 mph - N/A   Unknown
5:55 PM 50.0 °F - 26.6 °F 40% 30.03 in 10.0 mi Calm Calm - N/A   Unknown
6:15 PM 48.2 °F - 26.6 °F 43% 30.03 in 10.0 mi NE 3.5 mph - N/A   Unknown
6:35 PM 48.2 °F - 24.8 °F 40% 30.03 in 10.0 mi ENE 3.5 mph - N/A   Unknown
6:55 PM 48.2 °F - 23.0 °F 37% 30.04 in 10.0 mi NE 4.6 mph - N/A   Unknown
7:15 PM 46.4 °F 44.3 °F 24.8 °F 43% 30.04 in 10.0 mi ENE 4.6 mph - N/A   Unknown
7:35 PM 46.4 °F 43.5 °F 23.0 °F 40% 30.04 in 10.0 mi ENE 5.8 mph - N/A   Unknown
7:55 PM 46.4 °F 43.5 °F 23.0 °F 40% 30.04 in 10.0 mi NE 5.8 mph - N/A   Unknown
8:15 PM 44.6 °F 41.4 °F 23.0 °F 43% 30.04 in 10.0 mi NE 5.8 mph - N/A   Unknown
8:35 PM 44.6 °F 42.2 °F 23.0 °F 43% 30.05 in 10.0 mi NNE 4.6 mph - N/A   Unknown
8:55 PM 44.6 °F 42.2 °F 23.0 °F 43% 30.04 in 3.0 mi NE 4.6 mph - N/A   Haze
9:15 PM 42.8 °F 38.6 °F 23.0 °F 46% 30.04 in 10.0 mi ENE 6.9 mph - N/A   Unknown
9:35 PM 44.6 °F 41.4 °F 23.0 °F 43% 30.04 in 10.0 mi ENE 5.8 mph - N/A   Unknown
9:55 PM 42.8 °F 39.3 °F 23.0 °F 46% 30.04 in 9.0 mi NE 5.8 mph - N/A   Unknown
10:15 PM 42.8 °F 39.3 °F 23.0 °F 46% 30.04 in 4.0 mi NE 5.8 mph - N/A   Unknown
10:35 PM 41.0 °F 36.4 °F 23.0 °F 49% 30.04 in 5.0 mi NNE 6.9 mph - N/A   Haze
10:55 PM 41.0 °F 37.1 °F 24.8 °F 53% 30.04 in 5.0 mi NE 5.8 mph - N/A   Haze
11:15 PM 41.0 °F 37.1 °F 24.8 °F 53% 30.04 in 9.0 mi NE 5.8 mph - N/A   Unknown
11:35 PM 41.0 °F 37.1 °F 24.8 °F 53% 30.04 in 5.0 mi NE 5.8 mph - N/A   Haze
11:55 PM 39.2 °F 35.0 °F 24.8 °F 56% 30.04 in 5.0 mi NE 5.8 mph - N/A   Haze